This demonstration page uses our WeatherBlox Daily Observations layout. Learn more.

Left ArrowRight Arrow

38.20091, -84.87328

Hourly Observations for February 26, 2022

Temp ( °F °C ) Dew Point ( °F °C ) Humidity (%) Winds ( mph kmh ) Pressure ( in mb ) Visibility ( mi km ) Precip ( " mm )
12:53 am 00:53 Cloudy 31 -0.6 22 -5.6 69 69 VRB 6 9 30.53 1034 10 16 0.00 0.00
1:24 am 01:24 Cloudy 30 -1.1 22 -5.6 72 72 WNW 7 11 30.56 1035 10 16 0.00 0.00
1:53 am 01:53 Cloudy 30 -1.1 22 -5.6 72 72 NW 5 7 30.53 1034 10 16 0.00 0.00
2:53 am 02:53 Cloudy 30 -1.1 22 -5.6 72 72 NNW 3 6 30.52 1034 10 16 0.00 0.00
3:53 am 03:53 Cloudy 30 -1.1 23 -5 75 75 NW 5 7 30.53 1034 10 16 0.00 0.00
4:53 am 04:53 Cloudy 30 -1.1 23 -5 75 75 WNW 3 6 30.54 1034 10 16 0.00 0.00
5:53 am 05:53 Cloudy 29 -1.7 22 -5.6 75 75 WNW 3 6 30.54 1034 10 16 0.00 0.00
6:53 am 06:53 Cloudy 29 -1.7 22 -5.6 75 75 NNW 6 9 30.55 1035 10 16 0.00 0.00
7:53 am 07:53 Cloudy 29 -1.7 22 -5.6 75 75 N 5 7 30.53 1034 10 16 0.00 0.00
8:12 am 08:12 Cloudy 29 -1.7 23 -5 78 78 N 5 7 30.56 1035 10 16 0.00 0.00
8:53 am 08:53 Partly Cloudy 30 -1.1 24 -4.4 79 79 N 5 7 30.56 1035 10 16 0.00 0.00
9:04 am 09:04 Mostly Cloudy 30 -1.1 23 -5 75 75 N 5 7 30.58 1035 10 16 0.00 0.00
9:14 am 09:14 Mostly Cloudy 30 -1.1 23 -5 75 75 NNE 6 9 30.58 1035 10 16 0.00 0.00
9:24 am 09:24 Mostly Cloudy 31 -0.6 23 -5 72 72 NNE 5 7 30.57 1035 10 16 0.00 0.00
9:36 am 09:36 Partly Cloudy 31 -0.6 23 -5 72 72 NE 5 7 30.57 1035 10 16 0.00 0.00
9:53 am 09:53 Mostly Sunny 31 -0.6 23 -5 72 72 Calm 30.56 1035 10 16 0.00 0.00
10:13 am 10:13 Mostly Cloudy 32 0 24 -4.4 73 73 E 3 6 30.56 1035 10 16 0.00 0.00
10:20 am 10:20 Mostly Sunny 32 0 23 -5 69 69 Calm 30.57 1035 10 16 0.00 0.00
10:34 am 10:34 Mostly Cloudy 32 0 23 -5 69 69 ESE 3 6 30.57 1035 10 16 0.00 0.00
10:53 am 10:53 Mostly Cloudy 33 0.6 23 -5 66 66 Calm 30.55 1035 10 16 0.00 0.00
11:32 am 11:32 Partly Cloudy 34 1.1 24 -4.4 67 67 Calm 30.55 1034 10 16 0.00 0.00
11:53 am 11:53 Partly Cloudy 34 1.1 24 -4.4 67 67 VRB 3 6 30.53 1034 10 16 0.00 0.00
12:34 pm 12:34 Mostly Cloudy 35 1.7 24 -4.4 64 64 VRB 3 6 30.53 1034 10 16 0.00 0.00
12:53 pm 12:53 Cloudy 38 3.3 25 -3.9 60 60 VRB 3 6 30.50 1033 10 16 0.00 0.00
1:23 pm 13:23 Partly Cloudy 38 3.3 24 -4.4 57 57 Calm 30.51 1033 10 16 0.00 0.00
1:46 pm 13:46 Mostly Cloudy 38 3.3 25 -3.9 60 60 Calm 30.49 1033 10 16 0.00 0.00
1:53 pm 13:53 Mostly Cloudy 38 3.3 25 -3.9 60 60 SE 5 7 30.48 1032 10 16 0.00 0.00
2:09 pm 14:09 Partly Cloudy 37 2.8 25 -3.9 62 62 S 3 6 30.49 1033 10 16 0.00 0.00
2:53 pm 14:53 Sunny 40 4.4 25 -3.9 55 55 Calm 30.47 1032 10 16 0.00 0.00
3:53 pm 15:53 Sunny 40 4.4 26 -3.3 58 58 WSW 7 11 30.45 1031 10 16 0.00 0.00
4:53 pm 16:53 Sunny 40 4.4 24 -4.4 53 53 NNW 3 6 30.43 1031 10 16 0.00 0.00
5:53 pm 17:53 Sunny 38 3.3 24 -4.4 57 57 WNW 5 7 30.45 1031 10 16 0.00 0.00
6:53 pm 18:53 Clear 37 2.8 25 -3.9 62 62 NW 3 6 30.43 1031 10 16 0.00 0.00
7:53 pm 19:53 Clear 34 1.1 26 -3.3 73 73 Calm 30.43 1031 10 16 0.00 0.00
8:53 pm 20:53 Clear 33 0.6 27 -2.8 78 78 Calm 30.41 1030 10 16 0.00 0.00
9:53 pm 21:53 Clear 31 -0.6 26 -3.3 82 82 Calm 30.40 1030 10 16 0.00 0.00
10:53 pm 22:53 Clear 31 -0.6 26 -3.3 82 82 Calm 30.40 1030 10 16 0.00 0.00
11:53 pm 23:53 Clear 31 -0.6 27 -2.8 85 85 Calm 30.38 1029 10 16 0.00 0.00

Powered by AerisWeather